W3DAK Weather Reports


time (UTC)temp
C
wind
direction
speed
KPH
gust
KPH
rain 1hr
cm
rain 24hr
cm
rain mn
cm
humidity
%
barometer
mb
20260505101551 13 207 1.6 4.8 0.00 0.00 0.00 71 1011.2
20260505100049 13 180 3.2 8.0 0.00 0.00 0.00 71 1011.0
20260505094547 13 200 0.0 6.4 0.00 0.00 0.00 71 1011.0
20260505093051 14 219 1.6 6.4 0.00 0.00 0.00 71 1010.8
20260505091546 14 198 1.6 4.8 0.00 0.00 0.00 71 1010.8
20260505090045 13 205 1.6 6.4 0.00 0.00 0.00 73 1010.8
20260505084551 13 236 3.2 8.0 0.00 0.00 0.00 74 1010.9
20260505083050 13 228 1.6 8.0 0.00 0.00 0.00 77 1010.8
20260505081549 13 201 1.6 6.4 0.00 0.00 0.00 79 1010.8
20260505080042 13 196 0.0 3.2 0.00 0.00 0.00 80 1010.9
20260505074541 14 214 1.6 4.8 0.00 0.00 0.00 80 1010.9
20260505073039 14 179 0.0 8.0 0.00 0.00 0.00 79 1010.8
20260505071537 14 178 1.6 6.4 0.00 0.00 0.00 79 1010.7
20260505070042 15 172 1.6 6.4 0.00 0.00 0.00 77 1010.7
20260505064535 15 164 1.6 6.4 0.00 0.00 0.00 73 1010.7
20260505063034 15 161 0.0 6.4 0.00 0.00 0.00 70 1010.8
20260505061531 15 188 0.0 4.8 0.00 0.00 0.00 69 1010.6
20260505060036 15 207 3.2 8.0 0.00 0.00 0.00 70 1010.7
20260505054528 15 185 0.0 4.8 0.00 0.00 0.00 70 1010.7
20260505053042 15 207 1.6 4.8 0.00 0.00 0.00 70 1010.8
20260505051527 15 181 1.6 6.4 0.00 0.00 0.00 72 1010.8
20260505041519 16 168 0.0 4.8 0.00 0.00 0.00 72 1010.6
20260505040016 16 203 0.0 3.2 0.00 0.00 0.00 70 1010.6
20260505034517 16 200 0.0 6.4 0.00 0.00 0.00 69 1010.6
20260505033014 17 143 3.2 9.7 0.00 0.00 0.00 69 1010.6
20260505031515 17 207 3.2 12.9 0.00 0.00 0.00 67 1010.6
20260505030012 17 179 6.4 11.3 0.00 0.00 0.00 65 1010.6
20260505024512 17 186 3.2 11.3 0.00 0.00 0.00 64 1010.5
20260505023014 17 233 4.8 12.9 0.00 0.00 0.00 62 1010.5
20260505021510 17 174 0.0 9.7 0.00 0.00 0.00 62 1010.6
20260505020013 17 176 3.2 8.0 0.00 0.00 0.00 61 1010.5
20260505014510 17 185 3.2 9.7 0.00 0.00 0.00 61 1010.3
20260505013009 17 175 4.8 12.9 0.00 0.00 0.00 60 1010.2
20260505011508 17 184 3.2 9.7 0.00 0.00 0.00 58 1010.2
20260505010014 18 181 1.6 8.0 0.00 0.00 0.00 56 1010.1
20260505004507 18 192 3.2 9.7 0.00 0.00 0.00 55 1010.0
20260505003006 18 232 3.2 11.3 0.00 0.00 0.00 53 1010.0
20260505001509 19 178 6.4 14.5 0.00 0.00 0.00 52 1009.9
20260505000004 19 192 8.0 20.9 0.00 0.00 0.00 50 1009.9
20260504234504 20 188 9.7 25.7 0.00 0.00 0.00 47 1009.9
20260504233003 20 174 9.7 25.7 0.00 0.00 0.00 46 1009.9
20260504231504 21 147 9.7 25.7 0.00 0.00 0.00 46 1010.0
20260504230002 21 226 8.0 17.7 0.00 0.00 0.00 45 1010.0
20260504224505 22 204 6.4 14.5 0.00 0.00 0.00 43 1009.9
20260504223101 22 174 8.0 19.3 0.00 0.00 0.00 42 1009.9
20260504221559 22 188 8.0 22.5 0.00 0.00 0.00 42 1009.9
20260504220100 22 137 9.7 25.7 0.00 0.00 0.00 40 1009.8
20260504214607 22 163 9.7 25.7 0.00 0.00 0.00 40 1009.9
20260504213057 22 176 12.9 30.6 0.00 0.00 0.00 38 1009.9
20260504211555 22 163 6.4 22.5 0.00 0.00 0.00 40 1009.9
20260504210059 22 147 11.3 24.1 0.00 0.00 0.00 39 1009.9
20260504204557 22 193 9.7 20.9 0.00 0.00 0.00 42 1010.0
20260504203056 22 123 6.4 24.1 0.00 0.00 0.00 42 1010.2
20260504201547 22 181 8.0 24.1 0.00 0.00 0.00 41 1010.3
20260504200044 21 221 14.5 27.4 0.00 0.00 0.00 41 1010.6
20260504194547 21 161 6.4 22.5 0.00 0.00 0.00 43 1010.8
20260504193040 22 127 9.7 22.5 0.00 0.00 0.00 41 1011.1
20260504191537 21 173 8.0 20.9 0.00 0.00 0.00 41 1011.5
20260504190037 21 215 6.4 19.3 0.00 0.00 0.00 43 1011.7
20260504184533 21 200 11.3 24.1 0.00 0.00 0.00 40 1012.0
20260504183032 21 182 9.7 19.3 0.00 0.00 0.00 41 1012.0
20260504181531 21 182 11.3 17.7 0.00 0.00 0.00 41 1012.1
20260504180029 21 129 6.4 17.7 0.00 0.00 0.00 43 1012.4
20260504174527 21 193 8.0 19.3 0.00 0.00 0.00 43 1012.5
20260504173025 21 156 8.0 19.3 0.00 0.00 0.00 42 1012.7
20260504171531 20 154 4.8 16.1 0.00 0.00 0.00 45 1012.7